Dati Storici

Data ora Umidita' aria (%) Temperatura aria (°C) Rad globale (W/m²) Gonioanemometro (°) Tacoanemometro (m/s) Pioggia (mm)
29-06-2020 22:10 81.5 % 22.76 -62.754 1.5 0 0
29-06-2020 22:00 79.9 % 22.793 -54.514 2.228 0 0
29-06-2020 21:50 78.6 % 22.947 12.074 1.578 0 0
29-06-2020 21:40 77.8 % 22.991 -63.342 2.011 0 0
29-06-2020 21:30 77.4 % 23.088 -26.496 3.352 0 0
29-06-2020 21:20 76.8 % 23.206 -51.241 3.783 0 0
29-06-2020 21:10 76.2 % 23.356 -47.201 1.162 0 0
29-06-2020 21:00 76.6 % 23.516 -58.51 0.45 0 0
29-06-2020 20:50 77.7 % 23.466 -27.354 2.481 0 0
29-06-2020 20:40 79.4 % 23.347 -75.428 1.963 0 0
29-06-2020 20:30 79.8 % 23.302 -75.606 3.257 0 0
29-06-2020 20:20 80.9 % 23.324 -67.68 4.895 0 0
29-06-2020 20:10 81.2 % 23.475 8.509 3.591 0 0
29-06-2020 20:00 80.1 % 23.476 -53.344 1.899 0 0
29-06-2020 19:50 79 % 23.502 -71.126 3.005 0 0
29-06-2020 19:40 79.5 % 23.536 -69.246 3.031 0 0
29-06-2020 19:30 80.1 % 23.482 -62.123 3.195 0 0
29-06-2020 19:20 80.7 % 23.814 -59.585 1.971 0 0
29-06-2020 19:10 79.5 % 23.695 -73.268 1.592 0 0
29-06-2020 19:00 79.5 % 23.966 -75.56 2.619 0 0

I dati sono presentati in modo automatico a scopo informativo. In seguito a verifica i dati possono subire modifiche o essere invalidati e non riportati negli archivi definitivi.